STARLINK-1747 (46569 NORAD) Tracking and Keplerian Element Data

This shows tracking and keplerian element data for the satellite.

Feedback or suggestion? Click here.




ElementValue
Catalog46569
NameSTARLINK-1747
Epoch Orbit402
Epoch Day302.83335648
Epoch Year2020
RAAN332.088
Inclination53.0005
Eccentricity9.02E-05
Argument of Perigee47.1432
Mean Anonmoly30.8232
Mean Motion15.62748292
Decay Rate7.082E-05
L11 46569U 20070AP 20302.83335648 .00007082 00000-0 83116-4 0 9996
L22 46569 53.0005 332.0880 0000902 47.1432 30.8232 15.62748292 4021

Live tracking and technical data element details for STARLINK-1747 (NORAD 46569). STARLINK-1747 can be tracked NOW for your location showing map with azimuth and elevation plus other details from your city location.

Track the satellite on the map from your city or location and see movement details for azimuth, elevation, latitude, longitude, range, height, and movement on the map or in text.







IsCatalogInMostPopularTable: catalog: 46569, numindb: 3
Update: records affected: 1



GetName: 46569 STARLINK-1747

Hit Count: updated at: Fri, 30 Oct 2020 02:28:28 GMT